TimeCDT,TemperatureF,Dew PointF,Humidity,Sea Level PressureIn,VisibilityMPH,Wind Direction,Wind SpeedMPH,Gust SpeedMPH,PrecipitationIn,Events,Conditions,WindDirDegrees,DateUTC
12:15 AM,68.0,51.8,56,29.78,10.0,SSE,8.1,-,N/A,,Clear,150,2013-03-17 05:15:00
12:35 AM,64.4,50.0,59,29.78,10.0,SE,6.9,-,N/A,,Clear,140,2013-03-17 05:35:00
12:55 AM,64.4,51.8,64,29.78,10.0,SSE,6.9,-,N/A,,Clear,160,2013-03-17 05:55:00
1:15 AM,66.2,53.6,64,29.78,10.0,SSE,9.2,-,N/A,,Scattered Clouds,160,2013-03-17 06:15:00
1:35 AM,66.2,55.4,68,29.78,10.0,SSE,8.1,-,N/A,,Scattered Clouds,160,2013-03-17 06:35:00
1:55 AM,66.2,55.4,68,29.79,10.0,SSE,9.2,-,N/A,,Clear,160,2013-03-17 06:55:00
2:15 AM,66.2,55.4,68,29.79,10.0,SSE,11.5,-,N/A,,Scattered Clouds,160,2013-03-17 07:15:00
2:35 AM,64.4,55.4,73,29.79,10.0,SSE,9.2,16.1,N/A,,Scattered Clouds,160,2013-03-17 07:35:00
2:55 AM,64.4,55.4,73,29.79,10.0,SSE,8.1,-,N/A,,Scattered Clouds,160,2013-03-17 07:55:00
3:15 AM,64.4,57.2,77,29.79,10.0,South,6.9,-,N/A,,Mostly Cloudy,170,2013-03-17 08:15:00
3:35 AM,64.4,57.2,77,29.79,10.0,SSE,9.2,-,N/A,,Overcast,160,2013-03-17 08:35:00
3:55 AM,64.4,57.2,77,29.78,10.0,SSE,8.1,-,N/A,,Overcast,150,2013-03-17 08:55:00
4:15 AM,64.4,57.2,77,29.78,10.0,SSE,8.1,-,N/A,,Overcast,150,2013-03-17 09:15:00
4:35 AM,64.4,55.4,73,29.78,10.0,SSE,8.1,-,N/A,,Overcast,150,2013-03-17 09:35:00
4:55 AM,64.4,55.4,73,29.78,10.0,SSE,8.1,-,N/A,,Overcast,150,2013-03-17 09:55:00
5:15 AM,64.4,55.4,73,29.77,10.0,SSE,8.1,-,N/A,,Overcast,150,2013-03-17 10:15:00
5:35 AM,64.4,55.4,73,29.78,10.0,SSE,8.1,-,N/A,,Overcast,150,2013-03-17 10:35:00
5:55 AM,64.4,55.4,73,29.78,10.0,SSE,5.8,-,N/A,,Overcast,150,2013-03-17 10:55:00
6:15 AM,64.4,55.4,73,29.79,10.0,SSE,8.1,-,N/A,,Overcast,160,2013-03-17 11:15:00
6:35 AM,64.4,55.4,73,29.79,10.0,SSE,6.9,-,N/A,,Overcast,160,2013-03-17 11:35:00
6:55 AM,64.4,55.4,73,29.79,10.0,SSE,8.1,-,N/A,,Overcast,150,2013-03-17 11:55:00
7:15 AM,62.6,55.4,77,29.79,10.0,SSE,9.2,-,N/A,,Overcast,150,2013-03-17 12:15:00
7:35 AM,62.6,55.4,77,29.79,10.0,SSE,8.1,-,N/A,,Overcast,150,2013-03-17 12:35:00
7:55 AM,62.6,55.4,77,29.79,7.0,SSE,8.1,-,N/A,,Mostly Cloudy,150,2013-03-17 12:55:00
8:15 AM,62.6,57.2,82,29.79,10.0,SSE,9.2,17.3,N/A,,Mostly Cloudy,160,2013-03-17 13:15:00
8:35 AM,64.4,57.2,77,29.79,10.0,SSE,10.4,-,N/A,,Mostly Cloudy,150,2013-03-17 13:35:00
8:55 AM,64.4,59.0,83,29.79,7.0,SSE,12.7,-,N/A,,Mostly Cloudy,160,2013-03-17 13:55:00
9:15 AM,64.4,59.0,83,29.80,10.0,South,10.4,-,N/A,,Mostly Cloudy,170,2013-03-17 14:15:00
9:35 AM,64.4,59.0,83,29.80,10.0,South,10.4,-,N/A,,Mostly Cloudy,170,2013-03-17 14:35:00
9:55 AM,66.2,59.0,78,29.80,7.0,South,10.4,18.4,N/A,,Mostly Cloudy,180,2013-03-17 14:55:00
10:15 AM,66.2,59.0,78,29.80,10.0,South,8.1,-,N/A,,Mostly Cloudy,170,2013-03-17 15:15:00
10:35 AM,68.0,59.0,73,29.79,10.0,South,9.2,20.7,N/A,,Scattered Clouds,170,2013-03-17 15:35:00
10:55 AM,68.0,59.0,73,29.79,10.0,South,12.7,17.3,N/A,,Scattered Clouds,170,2013-03-17 15:55:00
11:15 AM,71.6,59.0,64,29.78,7.0,South,11.5,21.9,N/A,,Scattered Clouds,190,2013-03-17 16:15:00
11:35 AM,69.8,57.2,64,29.78,10.0,SSW,12.7,21.9,N/A,,Scattered Clouds,200,2013-03-17 16:35:00
11:55 AM,71.6,57.2,60,29.77,7.0,South,13.8,19.6,N/A,,Scattered Clouds,180,2013-03-17 16:55:00
12:15 PM,73.4,55.4,53,29.76,7.0,South,15.0,24.2,N/A,,Scattered Clouds,190,2013-03-17 17:15:00
12:35 PM,73.4,55.4,53,29.75,10.0,South,12.7,21.9,N/A,,Scattered Clouds,190,2013-03-17 17:35:00
12:55 PM,75.2,55.4,50,29.74,10.0,South,13.8,19.6,N/A,,Scattered Clouds,180,2013-03-17 17:55:00
1:15 PM,77.0,55.4,47,29.73,10.0,South,13.8,25.3,N/A,,Scattered Clouds,180,2013-03-17 18:15:00
1:35 PM,75.2,53.6,47,29.72,10.0,South,11.5,20.7,N/A,,Scattered Clouds,190,2013-03-17 18:35:00
1:55 PM,77.0,55.4,47,29.71,10.0,South,13.8,24.2,N/A,,Scattered Clouds,190,2013-03-17 18:55:00
2:15 PM,75.2,55.4,50,29.70,7.0,South,12.7,24.2,N/A,,Scattered Clouds,180,2013-03-17 19:15:00
2:35 PM,73.4,53.6,50,29.70,7.0,South,12.7,21.9,N/A,,Scattered Clouds,190,2013-03-17 19:35:00
2:55 PM,73.4,55.4,53,29.69,10.0,SSW,12.7,17.3,N/A,,Scattered Clouds,200,2013-03-17 19:55:00
3:15 PM,73.4,55.4,53,29.68,10.0,South,9.2,17.3,N/A,,Scattered Clouds,190,2013-03-17 20:15:00
3:35 PM,73.4,55.4,53,29.68,7.0,South,9.2,-,N/A,,Scattered Clouds,190,2013-03-17 20:35:00
3:55 PM,75.2,55.4,50,29.67,5.0,South,11.5,16.1,N/A,,Scattered Clouds,190,2013-03-17 20:55:00
4:15 PM,75.2,55.4,50,29.66,7.0,South,11.5,18.4,N/A,,Clear,190,2013-03-17 21:15:00
4:35 PM,77.0,55.4,47,29.66,10.0,South,10.4,19.6,N/A,,Clear,180,2013-03-17 21:35:00
4:55 PM,75.2,55.4,50,29.66,10.0,SSW,11.5,18.4,N/A,,Scattered Clouds,200,2013-03-17 21:55:00
5:15 PM,71.6,53.6,53,29.66,7.0,West,4.6,-,N/A,,Mostly Cloudy,270,2013-03-17 22:15:00
5:35 PM,69.8,53.6,56,29.66,10.0,West,4.6,-,N/A,,Scattered Clouds,270,2013-03-17 22:35:00
5:55 PM,69.8,51.8,53,29.67,7.0,West,8.1,-,N/A,,Scattered Clouds,280,2013-03-17 22:55:00
6:15 PM,68.0,50.0,52,29.68,10.0,WNW,8.1,-,N/A,,Scattered Clouds,300,2013-03-17 23:15:00
6:35 PM,64.4,50.0,59,29.69,10.0,WNW,8.1,-,N/A,,Scattered Clouds,300,2013-03-17 23:35:00
6:55 PM,64.4,48.2,56,29.69,7.0,WNW,6.9,-,N/A,,Mostly Cloudy,300,2013-03-17 23:55:00
7:15 PM,62.6,48.2,59,29.70,7.0,WNW,5.8,-,N/A,,Overcast,290,2013-03-18 00:15:00
7:35 PM,62.6,48.2,59,29.70,7.0,WNW,3.5,-,N/A,,Overcast,290,2013-03-18 00:35:00
7:55 PM,62.6,48.2,59,29.70,10.0,NW,3.5,-,N/A,,Overcast,310,2013-03-18 00:55:00
8:15 PM,60.8,48.2,63,29.70,10.0,NNW,3.5,-,N/A,,Mostly Cloudy,340,2013-03-18 01:15:00
8:35 PM,59.0,48.2,67,29.70,10.0,NNW,4.6,-,N/A,,Mostly Cloudy,340,2013-03-18 01:35:00
8:55 PM,59.0,46.4,63,29.71,10.0,NW,3.5,-,N/A,,Mostly Cloudy,310,2013-03-18 01:55:00
9:15 PM,59.0,46.4,63,29.71,10.0,Calm,Calm,-,N/A,,Mostly Cloudy,0,2013-03-18 02:15:00
9:35 PM,57.2,46.4,67,29.71,10.0,Calm,Calm,-,N/A,,Scattered Clouds,0,2013-03-18 02:35:00
9:55 PM,55.4,46.4,72,29.71,10.0,Calm,Calm,-,N/A,,Scattered Clouds,0,2013-03-18 02:55:00
10:15 PM,53.6,46.4,77,29.72,7.0,Calm,Calm,-,N/A,,Scattered Clouds,0,2013-03-18 03:15:00
10:35 PM,55.4,46.4,72,29.71,7.0,Calm,Calm,-,N/A,,Scattered Clouds,0,2013-03-18 03:35:00
10:55 PM,53.6,46.4,77,29.72,7.0,Calm,Calm,-,N/A,,Scattered Clouds,0,2013-03-18 03:55:00
11:15 PM,53.6,46.4,77,29.73,10.0,Calm,Calm,-,N/A,,Scattered Clouds,0,2013-03-18 04:15:00
11:35 PM,51.8,46.4,82,29.72,10.0,Calm,Calm,-,N/A,,Clear,0,2013-03-18 04:35:00
11:55 PM,53.6,46.4,77,29.72,10.0,Calm,Calm,-,N/A,,Clear,0,2013-03-18 04:55:00